{"data":{"norad_id":69546,"intl_designator":"2026-135A","name":"STARLINK-37880","alt_names":[],"object_type":"PAYLOAD","status":"ACTIVE","operator":null,"country":"US","launch_date":"2026-06-15","launch_site_code":"AFWTR","launch_vehicle":null,"mission":null,"orbit_class":"UNKNOWN","rcs_meters":null,"size_class":null,"mass_kg":null,"dimensions":null,"purposes":["comms"],"wikipedia_slug":null,"has_3d_model":false,"image_url":null,"decayed_at":null,"tle_current":{"epoch":"2026-09-20T00:42:57.711168Z","epoch_age_seconds":66125,"freshness":"FRESH","line1":"1 69546U 26135A   26263.02983462  .00012956  00000+0  40280-3 0  9999","line2":"2 69546  97.2834 290.8041 0001563  93.4698 266.6723 15.33455704 14939","mean_motion":15.33455704,"eccentricity":0.0001563,"inclination_deg":97.2834,"raan_deg":290.8041,"arg_perigee_deg":93.4698,"mean_anomaly_deg":266.6723,"bstar":0.0004028,"rev_number":1493,"period_min":93.905549162182,"perigee_km":464.44166485677,"apogee_km":466.58098932381,"semimajor_km":6843.6483270903,"source":"CELESTRAK","updated_at":"2026-09-20T09:00:44.241445Z"}}}